Location: Pine Mountain Observatory
(43.7910°N, 120.9377°W)
Time: 14:33:58
(UTC-07:00)

Explorer 11/Cluster Stage 4 - Pass Details

Date: 28 May 2019
Orbit: 467 x 1260 km, 28.8° (Epoch: 24 June)

Event Time Altitude Azimuth Distance (km) Brightness Sun altitude
Rises 04:14:39 0° 243° (WSW) 3,554 - -11.1°
Reaches altitude 10° 04:18:32 10° 222° (SW) 2,423 - -10.6°
Exits shadow 04:19:38 13° 213° (SSW) 2,178 8.2 -10.5°
Maximum altitude 04:21:45 15° 188° (S) 1,910 8.1 -10.2°
Drops below altitude 10° 04:24:39 10° 152° (SSE) 2,116 8.6 -9.8°
Sets 04:27:42 0° 129° (SE) 2,877 9.6 -9.4°
